Weather in Seltsy

Russia / Ryazan Oblast     54°54′38″N   39°31′19″E
temp.,
°C
wind,
m/s
gust,
m/s
humid.,
%
clouds,
%
prec.,
mm/h
press.,
hPa
HPBL,
m
27 february, sat
sat2700:00+1w6158884 0.0 1001893
03:00+1wnw6148988 0.1 1001964
06:00+1wnw81597100 0.3 10011097
09:00−8nnw61284100 1.0 1004747
12:00−8nnw5983100 0.0 1007692
15:00−7nnw4884100 0.0 1010579
18:00−9nnw269391 0.0 1011161
21:00−9nnw289568 0.0 1013207
28 february, sun
sun2800:00−9nw259679 0.1 1014176
03:00−11nw259673 0.1 1015126
06:00−12nnw229761 0.0 101567
09:00−9nnw139378 0.3 1015220
12:00−4nnw2386100 0.1 1015416
15:00−2nnw248796 0.1 1016532
18:00−3n1295100 0.1 101652
21:00−6n119493 0.1 101921
1 march, mon
mon100:00−8ne119783 0.0 102021
03:00−8se129792 0.2 102221
06:00−8s119798 0.1 102321
09:00−7sw119594 0.1 102475
12:00−2wsw239086 0.0 1023385
15:00−1wsw369191 0.1 1023569
18:00−1wsw3892100 0.0 1020446
21:000wsw51193100 0.1 1018652
2 march, tue
tue200:000w51296100 0.1 1015619
03:00+1w51292100 0.3 1012890
06:00+1wnw61297100 0.1 1009866
09:00+1nw5118798 0.6 1010945
12:00+1nw6118492 0.1 10101212
15:00+1nw5118593 0.2 10101172
18:00−1nw4138786 0.1 1010669
21:00−2nw4138892 0.1 1012692
3 march, wed
wed300:00−3nw412939 0.0 1013513
03:00−3nw4129340 0.1 1014686
06:00−3nw41189100 0.1 1015731
09:00−3nw5119180 0.1 1016755
12:00−1nw5983100 0.1 1017923
15:00−1nw5883100 0.1 1017942
18:00−1nw4985100 0.1 1017649
21:00−2nw3984100 0.1 1018593